This is the latest recevied weather packets stored in our database for station/object K3BAY-1. If no packets are shown the sender has not sent any weather packets the latest 10 day(s).
| Time | Temp. | Humidity | Pressure | Rain* | Wind** | Luminosity | Snow |
|---|---|---|---|---|---|---|---|
| 1777548159 | 11.67° C | 99% | 1006.4 hPa | 0 mm | - | 48 W/m² | - |
| 1777547856 | 11.67° C | 99% | 1006.4 hPa | 0 mm | - | 46 W/m² | - |
| 1777547551 | 11.11° C | 99% | 1006.4 hPa | 0 mm | - | 46 W/m² | - |
| 1777546952 | 10.56° C | 99% | 1006.7 hPa | 0 mm | - | 26 W/m² | - |
| 1777546649 | 10.56° C | 99% | 1006.7 hPa | 0 mm | - | 26 W/m² | - |
| 1777546345 | 10.56° C | 99% | 1006.7 hPa | 0 mm | - | 25 W/m² | - |
| 1777545874 | 10.56° C | 99% | 1006 hPa | 0 mm | - | 11 W/m² | - |
| 1777545570 | 10.56° C | 99% | 1006 hPa | 0 mm | - | 11 W/m² | - |
| 1777545266 | 10.56° C | 99% | 1006 hPa | 0 mm | - | 10 W/m² | - |
| 1777544625 | 10.56° C | 99% | 1006.4 hPa | 0 mm | - | 3 W/m² | - |
| 1777544322 | 10.56° C | 99% | 1006.4 hPa | 0 mm | - | 3 W/m² | - |
| 1777544019 | 10.56° C | 99% | 1006.4 hPa | 0 mm | - | 1 W/m² | - |
| 1777543716 | 10.56° C | 99% | 1006.4 hPa | 0 mm | - | 0 W/m² | - |
| 1777543411 | 10.56° C | 99% | 1006.4 hPa | 0 mm | - | 0 W/m² | - |
| 1777543106 | 10.56° C | 99% | 1006.7 hPa | 0 mm | - | 0 W/m² | - |
| 1777542634 | 10° C | 99% | 1007.4 hPa | 0 mm | - | 0 W/m² | - |
| 1777542331 | 10° C | 99% | 1007.4 hPa | 0 mm | - | 0 W/m² | - |
| 1777542027 | 10° C | 99% | 1007.4 hPa | 0 mm | - | 0 W/m² | - |
| 1777541638 | 10.56° C | 99% | 1006.7 hPa | 0 mm | - | 0 W/m² | - |
| 1777541335 | 10.56° C | 99% | 1006.7 hPa | 0 mm | - | 0 W/m² | - |
| 1777541030 | 10.56° C | 99% | 1005.7 hPa | 0 mm | - | 0 W/m² | - |
| 1777540728 | 10.56° C | 99% | 1005.7 hPa | 0 mm | - | 0 W/m² | - |
| 1777540426 | 10.56° C | 99% | 1005.7 hPa | 0 mm | - | 0 W/m² | - |
| 1777540122 | 10.56° C | 99% | 1006 hPa | 0 mm | - | 0 W/m² | - |
| 1777539822 | 10.56° C | 99% | 1006.4 hPa | 0 mm | - | 0 W/m² | - |
* Rain latest hour (hover to see other rain measurements)
** Current wind speed in m/s (hover to see current wind gust speed)